Overview Statistics Trail Chart Weather Telemetry Raw packets
 

This is the latest recevied weather packets stored in our database for station/object KI5NXU. If no packets are shown the sender has not sent any weather packets the latest 10 day(s).

<< 13 14 15 16 17 18 19 >>
Time Temp. Humidity Pressure Rain* Wind** Luminosity Snow
1788300241 38.33° C 34% 1012.9 hPa 0 mm - 392 W/m² -
1788299955 38.89° C 34% 1013 hPa 0 mm - 368 W/m² -
1788299639 39.44° C 33% 1013.3 hPa 0 mm - 460 W/m² -
1788299338 39.44° C 33% 1013.2 hPa 0 mm - 517 W/m² -
1788299037 38.89° C 32% 1013.4 hPa 0 mm - 493 W/m² -
1788298757 38.89° C 33% 1013.2 hPa 0 mm - 484 W/m² -
1788298431 38.33° C 34% 1013.3 hPa 0 mm - 489 W/m² -
1788298125 38.33° C 34% 1013.2 hPa 0 mm - 372 W/m² -
1788297821 38.33° C 33% 1013.4 hPa 0 mm - 483 W/m² -
1788297517 37.22° C 35% 1013.5 hPa 0 mm - 498 W/m² -
1788297213 37.22° C 37% 1013.5 hPa 0 mm - 275 W/m² -
1788296908 36.67° C 38% 1013.6 hPa 0 mm - 217 W/m² -
1788296604 36.67° C 38% 1013.7 hPa 0 mm - 140 W/m² -
1788296300 36.11° C 38% 1013.6 hPa 0 mm - 116 W/m² -
1788296000 36.67° C 38% 1014 hPa 0 mm - 106 W/m² -
1788295695 37.22° C 37% 1014.1 hPa 0 mm - 116 W/m² -
1788295391 37.78° C 37% 1013.7 hPa 0 mm - 197 W/m² -
1788295091 38.89° C 35% 1013.9 hPa 0 mm - 678 W/m² -
1788294786 38.33° C 35% 1014 hPa 0 mm - 696 W/m² -
1788294486 36.11° C 38% 1013.9 hPa 0 mm - 279 W/m² -
1788293877 36.11° C 39% 1014.1 hPa 0 mm - 131 W/m² -
1788293583 35.56° C 40% 1014.2 hPa 0 mm - 127 W/m² -
1788293270 36.11° C 40% 1014.3 hPa 0 mm - 131 W/m² -
1788292966 36.67° C 39% 1014.3 hPa 0 mm - 419 W/m² -
1788292664 36.11° C 40% 1014.7 hPa 0 mm - 665 W/m² -

* Rain latest hour (hover to see other rain measurements)
** Current wind speed in m/s (hover to see current wind gust speed)